When you browse on this site, cookies collect data to enhance your experience and personalize the content and advertising you see.
Visit our Privacy Policy to learn more. By continuing to use the site, you agree to this use of cookies and data.
  • In Österreich
  • Länderverzeichnis
  • Für 7 Tage
  • Wassertemperatur
  • Satellitenkarten
  • Wetterkarte
  • News
  • Widgets
  • user-avatar
    Anmelden

    Stündliche Wetter Covington

    Heute, 24 April, Mittwoch

    Zeit Temperatur Niederschläge Wind Luftdruck Luftfeuchtigkeit
    00:00 +13°C° 0 mm 2 m/S 746 mmHg 80%
    01:00 +13°C° 0 mm 2 m/S 746 mmHg 79%
    02:00 +12°C° 0 mm 1 m/S 746 mmHg 78%
    03:00 +12°C° 0 mm 1 m/S 746 mmHg 77%
    04:00 +12°C° 0 mm 1 m/S 746 mmHg 77%
    05:00 +12°C° 0 mm 1 m/S 746 mmHg 77%
    06:00 +12°C° 0 mm 1 m/S 746 mmHg 77%
    07:00 +14°C° 0 mm 1 m/S 746 mmHg 71%
    08:00 +15°C° 0 mm 1 m/S 746 mmHg 65%
    09:00 +18°C° 0 mm 1 m/S 746 mmHg 59%
    10:00 +20°C° 0 mm 1 m/S 746 mmHg 57%
    11:00 +21°C° 0 mm 1 m/S 746 mmHg 56%
    12:00 +23°C° 0 mm 1 m/S 745 mmHg 55%
    13:00 +22°C° 0 mm 1 m/S 745 mmHg 60%
    14:00 +22°C° 0 mm 1 m/S 744 mmHg 66%
    15:00 +20°C° 0 mm 2 m/S 744 mmHg 71%
    16:00 +20°C° 0 mm 2 m/S 743 mmHg 77%
    17:00 +19°C° 0 mm 2 m/S 743 mmHg 83%
    18:00 +19°C° 0 mm 2 m/S 743 mmHg 89%
    19:00 +18°C° 0.1 mm 2 m/S 743 mmHg 91%
    20:00 +18°C° 0.1 mm 2 m/S 743 mmHg 93%
    21:00 +17°C° 0.1 mm 2 m/S 743 mmHg 95%
    22:00 +17°C° 0.2 mm 3 m/S 743 mmHg 95%
    23:00 +17°C° 0.2 mm 3 m/S 742 mmHg 95%

    Morgen, 25 April, Donnerstag

    Zeit Temperatur Niederschläge Wind Luftdruck Luftfeuchtigkeit
    00:00 +17°C° 0.2 mm 3 m/S 742 mmHg 96%
    01:00 +17°C° 1.6 mm 3 m/S 742 mmHg 96%
    02:00 +17°C° 1.6 mm 3 m/S 741 mmHg 96%
    03:00 +18°C° 1.6 mm 3 m/S 741 mmHg 96%
    04:00 +18°C° 0.9 mm 3 m/S 741 mmHg 95%
    05:00 +18°C° 0.9 mm 3 m/S 741 mmHg 95%
    06:00 +18°C° 0.9 mm 3 m/S 741 mmHg 95%
    07:00 +18°C° 0.9 mm 3 m/S 741 mmHg 95%
    08:00 +18°C° 0.9 mm 3 m/S 741 mmHg 95%
    09:00 +18°C° 0.9 mm 3 m/S 741 mmHg 95%
    10:00 +18°C° 0.8 mm 4 m/S 741 mmHg 93%
    11:00 +19°C° 0.8 mm 4 m/S 741 mmHg 90%
    12:00 +19°C° 0.8 mm 4 m/S 741 mmHg 88%
    13:00 +19°C° 0.7 mm 4 m/S 741 mmHg 88%
    14:00 +19°C° 0.7 mm 5 m/S 741 mmHg 88%
    15:00 +17°C° 0.7 mm 5 m/S 740 mmHg 88%
    16:00 +18°C° 0.4 mm 4 m/S 740 mmHg 89%
    17:00 +18°C° 0.4 mm 4 m/S 740 mmHg 91%
    18:00 +17°C° 0.4 mm 3 m/S 740 mmHg 92%
    19:00 +17°C° 0.5 mm 3 m/S 740 mmHg 93%
    20:00 +17°C° 0.5 mm 3 m/S 741 mmHg 94%
    21:00 +16°C° 0.5 mm 2 m/S 741 mmHg 95%
    22:00 +16°C° 0.2 mm 3 m/S 741 mmHg 93%
    23:00 +16°C° 0.2 mm 3 m/S 740 mmHg 90%

    übermorgen, 26 April, Freitag

    Zeit Temperatur Niederschläge Wind Luftdruck Luftfeuchtigkeit
    00:00 +14°C° 0.2 mm 3 m/S 740 mmHg 87%
    01:00 +14°C° 0 mm 4 m/S 740 mmHg 88%
    02:00 +13°C° 0 mm 4 m/S 740 mmHg 89%
    03:00 +13°C° 0 mm 4 m/S 740 mmHg 89%
    04:00 +12°C° 0 mm 4 m/S 741 mmHg 88%
    05:00 +12°C° 0 mm 4 m/S 742 mmHg 88%
    06:00 +12°C° 0 mm 4 m/S 743 mmHg 87%
    07:00 +14°C° 0 mm 4 m/S 743 mmHg 72%
    08:00 +17°C° 0 mm 4 m/S 744 mmHg 58%
    09:00 +18°C° 0 mm 4 m/S 744 mmHg 44%
    10:00 +19°C° 0 mm 4 m/S 744 mmHg 42%
    11:00 +20°C° 0 mm 4 m/S 744 mmHg 41%
    12:00 +21°C° 0 mm 4 m/S 744 mmHg 39%
    13:00 +22°C° 0 mm 4 m/S 744 mmHg 40%
    14:00 +22°C° 0 mm 4 m/S 744 mmHg 41%
    15:00 +22°C° 0 mm 4 m/S 744 mmHg 42%
    16:00 +21°C° 0 mm 4 m/S 744 mmHg 45%
    17:00 +20°C° 0 mm 4 m/S 744 mmHg 49%
    18:00 +19°C° 0 mm 3 m/S 744 mmHg 53%
    19:00 +18°C° 0 mm 3 m/S 745 mmHg 56%
    20:00 +17°C° 0 mm 3 m/S 745 mmHg 60%
    21:00 +16°C° 0 mm 3 m/S 746 mmHg 63%
    22:00 +14°C° 0 mm 2 m/S 746 mmHg 61%
    23:00 +13°C° 0 mm 2 m/S 746 mmHg 58%

    27 April, Samstag

    Zeit Temperatur Niederschläge Wind Luftdruck Luftfeuchtigkeit
    00:00 +11°C° 0 mm 1 m/S 746 mmHg 56%
    01:00 +11°C° 0 mm 1 m/S 747 mmHg 57%
    02:00 +9°C° 0 mm 0 m/S 747 mmHg 58%
    03:00 +9°C° 0 mm 0 m/S 747 mmHg 59%
    04:00 +9°C° 0 mm 0 m/S 747 mmHg 60%
    05:00 +10°C° 0 mm 1 m/S 747 mmHg 61%
    06:00 +11°C° 0 mm 1 m/S 747 mmHg 62%
    07:00 +12°C° 0 mm 1 m/S 747 mmHg 58%
    08:00 +14°C° 0 mm 2 m/S 747 mmHg 53%
    09:00 +14°C° 0 mm 3 m/S 747 mmHg 49%
    10:00 +15°C° 0.1 mm 2 m/S 746 mmHg 54%
    11:00 +16°C° 0.1 mm 2 m/S 746 mmHg 58%
    12:00 +16°C° 0.1 mm 2 m/S 745 mmHg 62%
    13:00 +16°C° 0.3 mm 2 m/S 744 mmHg 69%
    14:00 +16°C° 0.3 mm 3 m/S 743 mmHg 75%
    15:00 +16°C° 0.3 mm 3 m/S 743 mmHg 82%
    16:00 +16°C° 0.1 mm 3 m/S 742 mmHg 85%
    17:00 +16°C° 0.1 mm 3 m/S 741 mmHg 87%
    18:00 +16°C° 0.1 mm 3 m/S 741 mmHg 90%
    19:00 +15°C° 0.2 mm 4 m/S 740 mmHg 89%
    20:00 +15°C° 0.2 mm 4 m/S 739 mmHg 88%
    21:00 +15°C° 0.2 mm 5 m/S 739 mmHg 87%
    22:00 +15°C° 0.3 mm 5 m/S 738 mmHg 85%
    23:00 +16°C° 0.3 mm 6 m/S 737 mmHg 83%

    28 April, Sonntag

    Zeit Temperatur Niederschläge Wind Luftdruck Luftfeuchtigkeit
    00:00 +16°C° 0.3 mm 7 m/S 736 mmHg 81%
    01:00 +16°C° 0 mm 7 m/S 736 mmHg 79%
    02:00 +15°C° 0 mm 7 m/S 737 mmHg 78%
    03:00 +15°C° 0 mm 7 m/S 737 mmHg 76%
    04:00 +12°C° 0 mm 7 m/S 738 mmHg 76%
    05:00 +11°C° 0 mm 7 m/S 739 mmHg 76%
    06:00 +9°C° 0 mm 7 m/S 741 mmHg 76%
    07:00 +8°C° 0 mm 7 m/S 743 mmHg 73%
    08:00 +6°C° 0 mm 7 m/S 744 mmHg 69%
    09:00 +5°C° 0 mm 6 m/S 746 mmHg 66%
    10:00 +7°C° 0 mm 6 m/S 747 mmHg 63%
    11:00 +8°C° 0 mm 6 m/S 748 mmHg 59%
    12:00 +9°C° 0 mm 6 m/S 749 mmHg 56%
    13:00 +9°C° 0 mm 5 m/S 749 mmHg 55%
    14:00 +10°C° 0 mm 5 m/S 750 mmHg 54%
    15:00 +10°C° 0 mm 5 m/S 751 mmHg 53%
    16:00 +10°C° 0 mm 4 m/S 751 mmHg 56%
    17:00 +10°C° 0 mm 3 m/S 752 mmHg 58%
    18:00 +9°C° 0 mm 2 m/S 752 mmHg 61%
    19:00 +8°C° 0 mm 2 m/S 753 mmHg 64%
    20:00 +8°C° 0 mm 1 m/S 754 mmHg 67%
    21:00 +7°C° 0 mm 1 m/S 754 mmHg 70%
    22:00 +6°C° 0 mm 1 m/S 754 mmHg 72%
    23:00 +6°C° 0 mm 1 m/S 755 mmHg 73%

    29 April, Montag

    Zeit Temperatur Niederschläge Wind Luftdruck Luftfeuchtigkeit
    00:00 +5°C° 0 mm 1 m/S 755 mmHg 75%
    01:00 +5°C° 0 mm 1 m/S 755 mmHg 76%
    02:00 +5°C° 0 mm 1 m/S 755 mmHg 77%
    03:00 +4°C° 0 mm 1 m/S 755 mmHg 78%
    04:00 +4°C° 0 mm 2 m/S 755 mmHg 75%
    05:00 +4°C° 0 mm 2 m/S 756 mmHg 73%
    06:00 +3°C° 0 mm 3 m/S 756 mmHg 70%
    07:00 +5°C° 0 mm 3 m/S 756 mmHg 63%
    08:00 +7°C° 0 mm 4 m/S 756 mmHg 56%
    09:00 +10°C° 0 mm 4 m/S 756 mmHg 50%
    10:00 +11°C° 0 mm 4 m/S 755 mmHg 47%
    11:00 +13°C° 0 mm 4 m/S 754 mmHg 44%
    12:00 +14°C° 0 mm 4 m/S 754 mmHg 41%
    13:00 +15°C° 0 mm 4 m/S 753 mmHg 43%
    14:00 +15°C° 0 mm 4 m/S 752 mmHg 45%
    15:00 +15°C° 0 mm 4 m/S 751 mmHg 46%
    16:00 +15°C° 0 mm 4 m/S 751 mmHg 49%
    17:00 +14°C° 0 mm 4 m/S 751 mmHg 51%
    18:00 +13°C° 0 mm 3 m/S 750 mmHg 54%
    19:00 +13°C° 0 mm 3 m/S 750 mmHg 52%
    20:00 +12°C° 0 mm 4 m/S 750 mmHg 51%
    21:00 +12°C° 0 mm 4 m/S 750 mmHg 50%
    22:00 +12°C° 0.1 mm 3 m/S 750 mmHg 54%
    23:00 +12°C° 0.1 mm 2 m/S 750 mmHg 58%
    Mehr zeigen